User: anonymous   Login
Location: Brabourne
(51.1333°N, 1.0000°E)
Time: 16:28:33
(UTC+00:00)
Language:

SeaSat 1 - Orbit

View from above orbital plane
View from above orbital plane
View from above satellite
View from above satellite

Ground track
Ground track

The orbit data is extracted from the following two-line orbital elements,

1 10967U 78064A   21263.85015798 -.00000051  00000-0  25226-4 0  9993
2 10967 107.9975 312.9559 0002447 286.5700  73.5176 14.43896637271271
Epoch (UTC): 20 September 2021 20:24:13
Eccentricity: 0.0002447
inclination: 107.9975°
perigee height: 744 km
apogee height: 747 km
right ascension of ascending node: 312.9559°
argument of perigee: 286.5700°
revolutions per day: 14.43896637
mean anomaly at epoch: 73.5176°
orbit number at epoch: 27127

The dashed part of the orbit path shows where the satellite is in the earth's shadow,  

DLR